Flag for Netherlands Weather past 2 weeks in Haarlem, Netherlands

Now
43 °F

Scattered showers. Passing clouds.


Feels Like: 32 °F
Forecast: 40 / 43 °F
Wind: 29 mph from West

Location: Amsterdam Schiphol Airport

Current Time: Mar 2, 2015 at 4:20:33 PM

Latest Report: Mar 2, 2015 at 3:55 PM


Visibility: N/A

Pressure: 29.68 "Hg

Humidity: 66%

Dew point: 32 °F

Location of HaarlemLocation

Historic Weather in Haarlem — Graph

°F

Haarlem temperature yesterday

Maximum temperature yesterday: 50 °F (at 10:55 AM)
Minimum temperature yesterday: 43 °F (at 2:25 AM)
Average temperature yesterday: 47 °F

Past Weeks' High & Low Weather Summary

 TemperatureHumidityPressure
High50 °F (Mar 1, 10:55 AM)100% (Feb 15, 11:55 PM)30.74 "Hg (Feb 15, 11:55 PM)
Low27 °F (Feb 16, 4:55 AM)50% (Feb 18, 3:25 PM)29.24 "Hg (Feb 23, 3:25 AM)
Average40 °F86%29.87 "Hg
* Reported Feb 15 2:25 PM — Mar 2 2:55 PM, Haarlem, Weather by CustomWeather, © 2015

Note: Actual official high and low records may vary slightly from our data, if they occured in-between our weather recording intervals... More about our weather records

Advertising

Haarlem weather history for previous 24 hours

 ConditionsComfort  
Time TempWeatherWind HumidityBarometerVisibility
2:55 PM
Mon, Mar 2
41 °FScattered showers. Passing clouds.23 mph81%29.65 "HgN/A
2:25 PM41 °FScattered clouds.24 mph81%29.65 "HgN/A
1:55 PM41 °FScattered clouds.20 mph87%29.65 "HgN/A
1:25 PM45 °FSprinkles. Scattered clouds.22 mph71%29.62 "HgN/A
12:55 PM45 °FPassing clouds.22 mph71%29.62 "HgN/A
12:25 PM45 °FPassing clouds.24 mph76%29.62 "HgN/A
11:55 AM45 °FPassing clouds.23 mph76%29.62 "HgN/A
11:25 AM45 °FPassing clouds.25 mph71%29.62 "HgN/A
10:55 AM43 °FSprinkles. Scattered clouds.22 mph76%29.59 "HgN/A
10:25 AM45 °FScattered clouds.24 mph71%29.59 "HgN/A
9:55 AM45 °FPassing clouds.20 mph76%29.59 "HgN/A
9:25 AM43 °FPassing clouds.20 mph76%29.59 "HgN/A
8:55 AM43 °FPassing clouds.17 mph76%29.56 "HgN/A
8:25 AM41 °FPassing clouds.15 mph76%29.56 "HgN/A
7:55 AM41 °FPassing clouds.16 mph76%29.56 "HgN/A
7:25 AM39 °FPassing clouds.15 mph81%29.53 "HgN/A
6:55 AM41 °FPassing clouds.17 mph76%29.53 "HgN/A
6:25 AM41 °FPassing clouds.20 mph70%29.53 "HgN/A
5:55 AM41 °FPassing clouds.21 mph70%29.50 "HgN/A
5:25 AM39 °FPassing clouds.21 mph75%29.50 "HgN/A
4:55 AM39 °FPassing clouds.18 mph81%29.50 "HgN/A
4:25 AM39 °FPassing clouds.22 mph75%29.47 "HgN/A
3:55 AM39 °FPassing clouds.23 mph75%29.47 "HgN/A
3:25 AM41 °FPassing clouds.24 mph76%29.45 "HgN/A
2:55 AM41 °FPassing clouds.23 mph76%29.45 "HgN/A
2:25 AM41 °FPassing clouds.23 mph76%29.45 "HgN/A
1:55 AM41 °FPassing clouds.21 mph76%29.42 "HgN/A
1:25 AM41 °FPassing clouds.25 mph81%29.42 "HgN/A
12:55 AM41 °FPassing clouds.24 mph81%29.39 "HgN/A
12:25 AM45 °FPassing clouds.24 mph81%29.39 "HgN/A
11:55 PM
Sun, Mar 1
45 °FPassing clouds.25 mph81%29.39 "HgN/A
11:25 PM43 °FPassing clouds.16 mph93%29.36 "HgN/A
10:55 PM43 °FRain showers. Partly cloudy.33 mph87%29.42 "Hg4 mi
10:25 PM46 °FSprinkles. Partly cloudy.18 mph82%29.39 "HgN/A
9:55 PM46 °FPartly cloudy.20 mph76%29.42 "HgN/A
9:25 PM46 °FPassing clouds.18 mph71%29.45 "HgN/A
8:25 PM45 °FClear.21 mph76%29.47 "Hg10 mi
7:55 PM45 °FClear.17 mph81%29.50 "Hg10 mi
7:25 PM45 °FPassing clouds.15 mph81%29.50 "HgN/A
6:55 PM46 °FClear.14 mph76%29.50 "Hg10 mi
6:25 PM46 °FClear.16 mph71%29.53 "Hg10 mi
5:55 PM46 °FPassing clouds.20 mph71%29.53 "HgN/A
5:25 PM48 °FPassing clouds.20 mph66%29.53 "HgN/A
4:55 PM48 °FPassing clouds.25 mph66%29.53 "HgN/A
4:25 PM50 °FPassing clouds.25 mph62%29.53 "HgN/A
Weather by CustomWeather, © 2015

See weather overviewHow to use our weather pages